Regional Weather Roundup
Issued by NWS

Home | Current Version | Previous Version | Graphics & Text | Print | Product List | Glossary Off
Versions: 1 2 3 4 5 6 7 8 9 10 11 12 13 14 15 16 17 18 19 20 21 22 23 24 25 26 27 28 29 30 31 32 33 34 35 36 37 38 39 40 41 42 43 44 45 46 47 48 49 50

000
ASUS43 KTOP 010308
RWRKS

WEATHER ROUNDUP FOR KANSAS
NATIONAL WEATHER SERVICE GOODLAND KS
1000 PM CDT SAT APR 30 2016

NOTE:  "FAIR" INDICATES FEW OR NO CLOUDS BELOW 12,000 FEET WITH NO
SIGNIFICANT WEATHER AND/OR OBSTRUCTIONS TO VISIBILITY.

KSZ001>006-013>018-027>032-041>047-010400-
NORTHWEST KANSAS

CITY           SKY/WX    TMP DP  RH WIND       PRES   REMARKS
GOODLAND       CLOUDY    35  33  92 N21G31    29.98R WCI  24
HAYS           CLOUDY    45  32  61 NW12      29.91R
HILL CITY      CLOUDY    42  37  82 NW10      29.94R
RUSSELL        CLOUDY    46  39  76 NW15      29.89R
$$

KSZ061>065-074>080-084>089-010400-
SOUTHWEST KANSAS

CITY           SKY/WX    TMP DP  RH WIND       PRES   REMARKS
DODGE CITY     CLOUDY    42  35  76 NW18      29.96R
ELKHART          N/A     42  29  60 NW14        N/A
GARDEN CITY    CLOUDY    42  32  67 NW20G25   29.98R
GREAT BEND     MOCLDY    46  36  66 NW13      29.92R
LIBERAL        CLEAR     45  30  57 NW14      30.01R
PRATT          CLEAR     43  38  82 NW9       29.93R
$$

KSZ066>073-081>083-090>101-010400-
SOUTHEAST KANSAS

CITY           SKY/WX    TMP DP  RH WIND       PRES   REMARKS
CHANUTE        CLEAR     55  46  71 W6        29.88R
COFFEYVILLE    CLEAR     58  48  69 NW7       29.88R
HUTCHINSON     CLEAR     45  41  86 CALM      29.90R
MEDICINE LODGE   N/A     49  40  71 NW7       29.92R
NEWTON         CLEAR     48  39  71 W6        29.91R
PARSONS        CLEAR     57  48  72 NW12      29.89R
WICHITA INTL   CLEAR     50  42  74 NW7       29.89R
WICHITA JABRA  CLEAR     51  42  71 W6        29.89R
WICHITA MCCONL CLEAR     53  42  66 NW6       29.90R
WINFIELD       CLEAR     51  45  79 NW3       29.91R
$$

KSZ007>012-019>026-033>040-048>060-102>105-010400-
NORTHEAST KANSAS

CITY           SKY/WX    TMP DP  RH WIND       PRES   REMARKS
CONCORDIA      CLOUDY    49  44  83 W7        29.87R
EMPORIA        MOCLDY    52  46  80 W3        29.87R
LAWRENCE       MOCLDY    55  50  83 NW3       29.85R
MANHATTAN      CLOUDY    55  44  66 W5        29.86R
MARYSVILLE     CLOUDY    52  46  82 W5        29.85R
OLATHE IND     PTCLDY    54  47  77 SW7       29.84R
OLATHE EXE     PTCLDY    56  47  71 SW5       29.84R
SALINA         CLOUDY    52  44  74 W7        29.89R
TOPEKA BILLARD MOCLDY    56  47  71 W5        29.85R
TOPEKA FORBES  MOCLDY    57  46  66 W10       29.85R
$$



USA.gov is the U.S. government's official web portal to all federal, state and local government web resources and services.